TIME,DELAY(SENSOR),PRES,T(CTD),SAL,OXYGEN,RAWTEMP,T(OPTODE),TCPHASE,FLUOR,BETA(BETA700),BETA(BETA412),BETA(BETA440),CDOM,C(CSC),CHECK
1335816081,5807,992.1799926757812000,4.2069997787475590,34.4992980957031250,47.1084403991699200,673.4644775390625000,4.1836829185485840,54.1161499023437500,53,100,89,80,83,15267,32949
1335816312,5808,971.1699829101562000,4.3042001724243160,34.4928016662597660,46.0583801269531250,670.5338745117188000,4.2805581092834470,54.2334899902343750,53,99,90,78,84,15269,31455
1335816543,5808,950.3599853515625000,4.3885002136230470,34.4860992431640600,45.2080688476562500,668.0380859375000000,4.3629860877990720,54.3204193115234400,52,101,87,80,83,15271,4430
1335816776,5807,929.2899780273438000,4.4394001960754395,34.4830017089843750,44.4814186096191400,666.3306884765625000,4.4193329811096190,54.4103813171386700,53,100,90,80,84,15268,1120
1335817009,5808,908.6500244140625000,4.5054998397827150,34.4782981872558600,44.0539512634277340,664.4033813476562000,4.4828948974609375,54.4482002258300800,52,100,89,81,84,15268,34518
1335817251,5806,887.8300170898438000,4.5672001838684080,34.4725990295410160,43.2950782775878900,662.5192871093750000,4.5449981689453125,54.5326614379882800,53,100,90,79,83,15267,43464
1335817506,5807,866.8300170898438000,4.6296000480651855,34.4664993286132800,42.3324203491210940,660.6586303710938000,4.6062889099121090,54.6569099426269500,53,100,90,79,84,15269,33821
1335817783,5806,845.3099975585938000,4.7239999771118160,34.4565010070800800,41.0438499450683600,657.8527221679688000,4.6986389160156250,54.8170890808105500,53,101,87,80,84,15266,40820
1335818040,5807,823.9799804687500000,4.8021998405456540,34.4472999572753900,40.2316017150878900,655.4553222656250000,4.7774767875671390,54.9078712463378900,52,101,89,79,83,15268,25494
1335818262,5808,802.5200195312500000,4.8731999397277830,34.4379005432128900,38.9073410034179700,653.2318725585938000,4.8505377769470215,55.0881690979003900,53,101,88,80,83,15264,4985
1335818482,5807,780.4500122070312000,4.9291000366210940,34.4291992187500000,38.3004913330078100,651.3936767578125000,4.9108982086181640,55.1666908264160160,53,102,87,80,84,15267,42110
1335818709,5807,760.1900024414062000,5.0197000503540040,34.4169006347656250,37.1948394775390600,648.8629760742188000,4.9939417839050290,55.3093414306640600,53,103,87,80,83,15265,22918
1335818953,5809,739.9000244140625000,5.1100001335144040,34.4039001464843750,36.1828193664550800,646.0656127929688000,5.0856552124023440,55.4430389404296900,52,103,90,79,84,15266,26682
1335819228,5807,717.4600219726562000,5.2484998703002930,34.3820991516113300,35.2336082458496100,641.7584838867188000,5.2266960144042970,55.5548782348632800,53,103,91,79,82,15266,63628
1335819459,5808,696.3400268554688000,5.4821000099182130,34.3465995788574200,34.8934097290039060,634.7081909179688000,5.4571499824523930,55.5295791625976560,54,102,90,80,83,15261,21092
1335819714,5806,675.0300292968750000,5.6842999458312990,34.3111000061035160,36.2694206237793000,628.2257080078125000,5.6685848236083980,55.2361297607421900,52,103,91,80,83,15263,33651
1335819958,5806,654.2600097656250000,5.7526998519897460,34.2821006774902340,39.3037185668945300,626.2727050781250000,5.7321991920471190,54.7320213317871100,53,103,90,80,83,15261,55605
1335820191,5807,633.8099975585938000,5.8098998069763180,34.2785987854003900,40.0161094665527340,624.5532226562500000,5.7881770133972170,54.6075286865234400,53,104,91,80,84,15261,29731
1335820457,5806,612.6099853515625000,5.9400000572204590,34.2672004699707000,40.6746902465820300,620.5451049804688000,5.9185390472412110,54.4548187255859400,52,102,87,80,83,15262,52460
1335820787,5808,590.1400146484375000,6.0335001945495605,34.2327003479003900,47.6836585998535160,617.6815795898438000,6.0115737915039060,53.3605613708496100,53,104,92,81,82,15260,54637
1335821019,5807,568.5499877929688000,6.1346001625061035,34.2154998779296900,51.3628082275390600,614.5803833007812000,6.1122422218322750,52.7894287109375000,52,104,87,80,83,15261,61120
1335821230,5807,547.5300292968750000,6.2589001655578610,34.1912002563476560,55.7309112548828100,610.7141113281250000,6.2376098632812500,52.1350517272949200,52,105,92,79,83,15260,57896
1335821441,5807,526.5700073242188000,6.6254000663757320,34.2027015686035160,60.0612716674804700,599.5303955078125000,6.5994358062744140,51.4025306701660160,52,106,89,81,82,15258,36385
1335821650,5807,506.1900024414062500,6.7406001091003420,34.1934013366699200,63.8203201293945300,595.8319091796875000,6.7188282012939450,50.8550605773925800,51,106,91,82,81,15256,50416
1335825583,5961,198.4299926757812500,16.6573009490966800,34.5623016357421900,190.5794067382812500,278.6101074218750000,16.6163806915283200,33.9431686401367200,50,111,88,81,69,15244,40176
1335825708,5809,192.6699981689453000,17.1208000183105470,34.6144981384277340,200.2953033447265600,262.1332092285156000,17.1199092864990230,33.1126289367675800,50,110,90,80,67,15238,47985
1335825862,5806,186.9700012207031200,18.1084003448486330,34.7459983825683600,201.2760925292968800,232.4481964111328000,18.0265693664550780,32.6337699890136700,55,109,91,79,67,15235,5465
1335826032,5807,181.0399932861328000,18.9083003997802730,34.8305015563964840,207.3683929443359400,206.1231994628906200,18.8305397033691400,31.9190406799316400,65,113,88,80,65,15223,9685
1335826213,5808,175.1399993896484400,19.7285003662109380,34.9257011413574200,209.9089050292968800,178.5950927734375000,19.6716899871826170,31.4022808074951170,77,117,93,82,66,15215,9154
1335826434,5807,167.8600006103515600,19.9171009063720700,34.9404983520507800,213.1029968261718800,170.6661987304687500,19.9141292572021500,31.1219100952148440,82,118,90,84,65,15202,55681
1335826540,5808,162.6000061035156200,20.2914009094238280,34.9752006530761700,214.4031982421875000,158.7384033203125000,20.2790298461914060,30.8928394317626950,85,121,91,83,65,15197,1722
1335826674,5804,156.8500061035156200,20.4244995117187500,34.9933013916015600,216.4680938720703000,154.0668945312500000,20.4220104217529300,30.7215995788574220,91,118,91,83,64,15194,64949
1335826819,5807,150.8899993896484400,20.6068992614746100,35.0094985961914060,217.3596038818359400,148.0536041259765600,20.6061191558837900,30.5951499938964840,92,121,86,83,64,15189,43184
1335826980,5807,144.9400024414062500,20.9500999450683600,35.0348014831543000,219.9667968750000000,137.1842956542968800,20.9391002655029300,30.3171997070312500,100,120,92,83,65,15175,19018
1335827118,5807,138.0599975585937500,21.3509006500244140,35.0905990600585940,221.1412048339843800,124.3203964233398400,21.3335494995117200,30.0888805389404300,103,122,92,83,63,15167,40586
1335827216,5804,132.4900054931640600,21.7357006072998050,35.1451988220214840,221.3392944335937500,112.5739974975586000,21.6941204071044920,29.9256401062011720,115,126,91,83,65,15150,13810
1335827331,5805,126.8199996948242200,22.0410003662109380,35.1388015747070300,222.8959045410156200,101.7799987792968800,22.0258197784423830,29.7077407836914060,125,125,90,84,64,15142,3577
1335827567,5809,121.6900024414062500,22.3668994903564450,35.0825004577636700,228.3054962158203000,91.2898406982421900,22.3485507965087900,29.3075408935546880,146,127,92,82,62,15111,60670
1335827787,5804,114.3700027465820300,22.5308990478515620,35.0998001098632800,230.2951965332031200,84.4131774902343800,22.5603294372558600,29.1242904663085940,153,128,90,84,62,15092,24995
1335827903,5805,108.7699966430664000,22.8812999725341800,35.1273994445800800,233.9188995361328000,74.7152099609375000,22.8592891693115230,28.8302192687988280,125,123,92,86,62,15109,46020
1335828093,5805,103.4800033569336000,22.9974994659423830,35.0918998718261700,241.5296936035156200,70.6378173828125000,22.9850902557373050,28.4306392669677730,94,124,94,83,59,15132,21587
1335830117,5806,19.9400005340576170,24.0158004760742200,34.9972991943359400,245.8511962890625000,36.7100296020507800,24.0347003936767580,27.8175106048584000,52,119,91,84,60,15115,5657
1335830170,5805,17.5000000000000000,24.0482006072998050,34.9964981079101560,245.9963073730468800,35.9830513000488300,24.0572490692138670,27.8023109436035160,52,119,93,86,57,15112,58556
1335830222,5806,15.0699996948242190,24.0597991943359380,34.9984016418457000,245.8699951171875000,35.0452003479003900,24.0863399505615230,27.7961997985839840,50,118,96,84,56,15117,49896
1335830274,5806,12.3999996185302730,24.0772991180419920,34.9967994689941400,245.7830963134765600,34.3857803344726560,24.1068000793457030,27.7919692993164060,50,119,93,85,60,15118,46419
1335830328,5807,9.9300003051757810,24.1089000701904300,34.9976997375488300,245.7310943603515600,33.8300209045410160,24.1240406036376950,27.7873191833496100,50,119,92,85,62,15112,32031
1335830381,5807,7.8899998664855960,24.1102008819580080,34.9967002868652340,245.8899993896484400,34.0064582824707000,24.1185703277587900,27.7825393676757800,50,117,89,83,53,15117,18837
1335830433,5805,6.2199997901916500,24.1151008605957030,34.9978981018066400,245.9465942382812500,33.9294509887695300,24.1209602355957030,27.7791099548339840,50,118,95,85,60,15083,28871
1335830512,5807,4.3699998855590820,24.1166992187500000,34.9972991943359400,246.0543060302734400,33.4906196594238300,24.1345806121826170,27.7691001892089840,50,120,94,86,52,15117,4245
1335830565,5808,3.2500000000000000,0.0000000000000000,0.0000000000000000,246.0720977783203000,33.4490203857421900,24.1358699798584000,27.7677307128906250,50,118,94,85,54,15116,11792
1335830592,5807,2.1600000858306885,0.0000000000000000,0.0000000000000000,245.9622955322265600,33.5876884460449200,24.1315708160400400,27.7742195129394530,50,118,92,85,53,15113,21880
1335830619,5806,1.0099999904632568,0.0000000000000000,0.0000000000000000,246.0758056640625000,33.4247283935546900,24.1366195678710940,27.7673492431640620,50,116,92,83,73,15110,4577
